,,,PA_Meas_PMT16A,,PR_Meas_QMR101_102,,RH_Meas_QMH101,,SR_Meas_QMS101,,TA_Meas_QMH101,,GenWind,,GenWind,
date,time,status,PA,status,PR,status,RH,status,SR,status,TA,status,DirAvg,status,SpdAvg,
2011-03-26, 00:00:04,VALID,999.56,VALID,0,VALID,91.0366,VALID,0,VALID,23.6036,VALID,41,VALID,0,
2011-03-26, 00:01:04,VALID,999.509,VALID,0,VALID,90.9374,VALID,0,VALID,23.5628,VALID,41,VALID,0,
2011-03-26, 00:02:04,VALID,999.497,VALID,0,VALID,90.9374,VALID,0,VALID,23.5841,VALID,41,VALID,0,
2011-03-26, 00:03:04,VALID,999.475,VALID,0,VALID,90.9374,VALID,0,VALID,23.5823,VALID,41,VALID,0,
2011-03-26, 00:04:04,VALID,999.444,VALID,0,VALID,90.8383,VALID,0,VALID,23.5628,VALID,41,VALID,0,
2011-03-26, 00:05:04,VALID,999.424,VALID,0,VALID,90.6857,VALID,0,VALID,23.5841,VALID,66,VALID,0.138281,
2011-03-26, 00:06:04,VALID,999.409,VALID,0,VALID,90.3728,VALID,0,VALID,23.6036,VALID,66,VALID,0,
2011-03-26, 00:07:04,VALID,999.382,VALID,0,VALID,90.1516,VALID,0,VALID,23.6232,VALID,66,VALID,0,
2011-03-26, 00:08:04,VALID,999.396,VALID,0,VALID,89.9532,VALID,0,VALID,23.6214,VALID,102,VALID,0,
2011-03-26, 00:09:04,VALID,999.391,VALID,0,VALID,89.8311,VALID,0,VALID,23.6409,VALID,101,VALID,0,
2011-03-26, 00:10:04,VALID,999.348,VALID,0,VALID,89.7472,VALID,0,VALID,23.6604,VALID,102,VALID,0,
2011-03-26, 00:11:04,VALID,999.333,VALID,0,VALID,89.7014,VALID,0,VALID,23.6799,VALID,135,VALID,0,
2011-03-26, 00:12:04,VALID,999.294,VALID,0,VALID,89.5946,VALID,0,VALID,23.6604,VALID,135,VALID,0,
2011-03-26, 00:13:04,VALID,999.333,VALID,0,VALID,89.4573,VALID,0,VALID,23.6994,VALID,181,VALID,0,
2011-03-26, 00:14:04,VALID,999.271,VALID,0,VALID,89.32,VALID,0,VALID,23.7207,VALID,7,VALID,0.71875,
2011-03-26, 00:15:04,VALID,999.291,VALID,0,VALID,89.0682,VALID,0,VALID,23.7597,VALID,214,VALID,0.416797,
2011-03-26, 00:16:04,VALID,999.275,VALID,0,VALID,88.8622,VALID,0,VALID,23.7988,VALID,214,VALID,0.491406,
2011-03-26, 00:17:04,VALID,999.237,VALID,0,VALID,88.824,VALID,0,VALID,23.8183,VALID,214,VALID,0.0730469,
2011-03-26, 00:18:04,VALID,999.235,VALID,0,VALID,88.8088,VALID,0,VALID,23.7775,VALID,286,VALID,0.25,
2011-03-26, 00:19:04,VALID,999.181,VALID,0,VALID,88.8698,VALID,0,VALID,23.7579,VALID,286,VALID,0.339063,
2011-03-26, 00:20:04,VALID,999.185,VALID,0,VALID,88.8698,VALID,0,VALID,23.8183,VALID,245,VALID,0,
2011-03-26, 00:21:04,VALID,999.19,VALID,0,VALID,88.8927,VALID,0,VALID,23.8183,VALID,251,VALID,0,
2011-03-26, 00:22:04,VALID,999.142,VALID,0,VALID,88.9309,VALID,0,VALID,23.797,VALID,240,VALID,0,
2011-03-26, 00:23:04,VALID,999.134,VALID,0,VALID,88.9385,VALID,0,VALID,23.8183,VALID,222,VALID,0.971875,
2011-03-26, 00:24:04,VALID,999.096,VALID,0,VALID,88.9385,VALID,0,VALID,23.8165,VALID,251,VALID,0.512109,
2011-03-26, 00:25:04,VALID,999.083,VALID,0,VALID,88.9309,VALID,0,VALID,23.8378,VALID,261,VALID,0.882813,
2011-03-26, 00:26:04,VALID,999.091,VALID,0,VALID,88.969,VALID,0,VALID,23.836,VALID,245,VALID,0.691016,
2011-03-26, 00:27:04,VALID,999.085,VALID,0,VALID,88.9385,VALID,0,VALID,23.8573,VALID,270,VALID,0.757813,
2011-03-26, 00:28:04,VALID,999.091,VALID,0,VALID,88.8546,VALID,0,VALID,23.8555,VALID,195,VALID,0.804297,
2011-03-26, 00:29:04,VALID,999.066,VALID,0,VALID,88.8851,VALID,0,VALID,23.8573,VALID,232,VALID,0.870703,
2011-03-26, 00:30:04,VALID,999.063,VALID,0,VALID,88.8851,VALID,0,VALID,23.8555,VALID,212,VALID,1.07969,
2011-03-26, 00:31:04,VALID,999.076,VALID,0,VALID,88.8546,VALID,0,VALID,23.8768,VALID,251,VALID,0.529688,
2011-03-26, 00:32:04,VALID,999.038,VALID,0,VALID,88.8317,VALID,0,VALID,23.8768,VALID,200,VALID,0.552344,
2011-03-26, 00:33:04,VALID,999.026,VALID,0,VALID,88.8698,VALID,0,VALID,23.8555,VALID,161,VALID,0.427344,
2011-03-26, 00:34:04,VALID,999.03,VALID,0,VALID,88.9385,VALID,0,VALID,23.875,VALID,167,VALID,0.686719,
2011-03-26, 00:35:04,VALID,999.033,VALID,0,VALID,88.908,VALID,0,VALID,23.8963,VALID,179,VALID,0.897656,
2011-03-26, 00:36:04,VALID,999.006,VALID,0,VALID,88.8927,VALID,0,VALID,23.875,VALID,174,VALID,0.897656,
2011-03-26, 00:37:04,VALID,998.983,VALID,0,VALID,88.8698,VALID,0,VALID,23.9159,VALID,178,VALID,1.07344,
2011-03-26, 00:38:04,VALID,999.006,VALID,0,VALID,88.7935,VALID,0,VALID,23.9159,VALID,183,VALID,0.937109,
2011-03-26, 00:39:04,VALID,998.982,VALID,0,VALID,88.6333,VALID,0,VALID,23.9354,VALID,147,VALID,1.15,
2011-03-26, 00:40:04,VALID,998.97,VALID,0,VALID,88.5723,VALID,0,VALID,23.9354,VALID,146,VALID,1.13516,
2011-03-26, 00:41:04,VALID,998.932,VALID,0,VALID,88.7401,VALID,0,VALID,23.9336,VALID,143,VALID,1.08164,
2011-03-26, 00:42:04,VALID,998.919,VALID,0,VALID,88.763,VALID,0,VALID,23.9354,VALID,156,VALID,1.14063,
2011-03-26, 00:43:04,VALID,998.924,VALID,0,VALID,88.8393,VALID,0,VALID,23.8945,VALID,158,VALID,1.65781,
2011-03-26, 00:44:04,VALID,998.885,VALID,0,VALID,88.6867,VALID,0,VALID,23.914,VALID,164,VALID,0.691016,
2011-03-26, 00:45:04,VALID,998.894,VALID,0,VALID,88.5799,VALID,0,VALID,23.9549,VALID,150,VALID,0.726563,
2011-03-26, 00:46:04,VALID,998.859,VALID,0,VALID,88.5341,VALID,0,VALID,23.9336,VALID,138,VALID,1.39492,
2011-03-26, 00:47:04,VALID,998.829,VALID,0,VALID,88.5646,VALID,0,VALID,23.9549,VALID,126,VALID,1.0125,
2011-03-26, 00:48:04,VALID,998.841,VALID,0,VALID,88.7706,VALID,0,VALID,23.9354,VALID,126,VALID,1.03203,
2011-03-26, 00:49:04,VALID,998.801,VALID,0,VALID,88.9919,VALID,0,VALID,23.8945,VALID,123,VALID,0.925391,
2011-03-26, 00:50:04,VALID,998.835,VALID,0,VALID,89.1826,VALID,0,VALID,23.8768,VALID,123,VALID,0,
2011-03-26, 00:51:04,VALID,998.82,VALID,0,VALID,89.4039,VALID,0,VALID,23.8573,VALID,123,VALID,0,
2011-03-26, 00:52:04,VALID,998.781,VALID,0,VALID,89.6404,VALID,0,VALID,23.8378,VALID,119,VALID,0.451953,
2011-03-26, 00:53:04,VALID,998.789,VALID,0,VALID,89.8769,VALID,0,VALID,23.8183,VALID,116,VALID,1.17188,
2011-03-26, 00:54:04,VALID,998.798,VALID,0,VALID,90.0906,VALID,0,VALID,23.7597,VALID,119,VALID,1.22695,
2011-03-26, 00:55:04,VALID,998.783,VALID,0,VALID,90.2279,VALID,0,VALID,23.7402,VALID,123,VALID,1.00859,
2011-03-26, 00:56:04,VALID,998.763,VALID,0,VALID,90.3576,VALID,0,VALID,23.6994,VALID,114,VALID,0.907422,
2011-03-26, 00:57:04,VALID,998.754,VALID,0,VALID,90.4339,VALID,0,VALID,23.6817,VALID,116,VALID,0.510938,
2011-03-26, 00:58:04,VALID,998.747,VALID,0,VALID,90.4873,VALID,0,VALID,23.6817,VALID,102,VALID,0.744922,
2011-03-26, 00:59:04,VALID,998.735,VALID,0,VALID,90.5712,VALID,0,VALID,23.6622,VALID,82,VALID,0.897656,
2011-03-26, 01:00:04,VALID,998.654,VALID,0,VALID,90.7162,VALID,0,VALID,23.6409,VALID,76,VALID,1.06367,
2011-03-26, 01:01:04,VALID,998.678,VALID,0,VALID,90.823,VALID,0,VALID,23.6232,VALID,76,VALID,0.806641,
2011-03-26, 01:02:04,VALID,998.652,VALID,0,VALID,90.8764,VALID,0,VALID,23.6232,VALID,76,VALID,0.423828,
2011-03-26, 01:03:04,VALID,998.644,VALID,0,VALID,90.9451,VALID,0,VALID,23.6036,VALID,75,VALID,0.848047,
2011-03-26, 01:04:04,VALID,998.626,VALID,0,VALID,91.0061,VALID,0,VALID,23.5823,VALID,67,VALID,0.896875,
2011-03-26, 01:05:04,VALID,998.649,VALID,0,VALID,91.0748,VALID,0,VALID,23.5841,VALID,67,VALID,0.450781,
2011-03-26, 01:06:04,VALID,998.625,VALID,0,VALID,91.0977,VALID,0,VALID,23.5628,VALID,67,VALID,0,
2011-03-26, 01:07:04,VALID,998.628,VALID,0,VALID,91.1587,VALID,0,VALID,23.5841,VALID,67,VALID,0,
2011-03-26, 01:08:04,VALID,998.642,VALID,0,VALID,91.1663,VALID,0,VALID,23.5646,VALID,67,VALID,0,
2011-03-26, 01:09:04,VALID,998.655,VALID,0,VALID,91.174,VALID,0,VALID,23.5646,VALID,67,VALID,0,
2011-03-26, 01:10:04,VALID,998.64,VALID,0,VALID,91.1511,VALID,0,VALID,23.5646,VALID,67,VALID,0,
2011-03-26, 01:11:04,VALID,998.632,VALID,0,VALID,91.1587,VALID,0,VALID,23.5646,VALID,67,VALID,0,
2011-03-26, 01:12:04,VALID,998.63,VALID,0,VALID,91.1816,VALID,0,VALID,23.5646,VALID,67,VALID,0,
2011-03-26, 01:13:04,VALID,998.636,VALID,0,VALID,91.2731,VALID,0,VALID,23.5646,VALID,67,VALID,0,
2011-03-26, 01:14:04,VALID,998.638,VALID,0,VALID,91.3037,VALID,0,VALID,23.5646,VALID,67,VALID,0,
2011-03-26, 01:15:04,VALID,998.594,VALID,0,VALID,91.3571,VALID,0,VALID,23.5451,VALID,67,VALID,0,
2011-03-26, 01:16:04,VALID,998.584,VALID,0,VALID,91.4105,VALID,0,VALID,23.5451,VALID,67,VALID,0,
2011-03-26, 01:17:04,VALID,998.6,VALID,0,VALID,91.4105,VALID,0,VALID,23.5451,VALID,67,VALID,0,
2011-03-26, 01:18:04,VALID,998.565,VALID,0,VALID,91.4028,VALID,0,VALID,23.5451,VALID,67,VALID,0,
2011-03-26, 01:19:04,VALID,998.51,VALID,0,VALID,91.3418,VALID,0,VALID,23.5451,VALID,67,VALID,0,
2011-03-26, 01:20:04,VALID,998.522,VALID,0,VALID,91.2655,VALID,0,VALID,23.5841,VALID,69,VALID,0,
2011-03-26, 01:21:04,VALID,998.54,VALID,0,VALID,91.1816,VALID,0,VALID,23.6036,VALID,69,VALID,0,
2011-03-26, 01:22:04,VALID,998.523,VALID,0,VALID,91.1358,VALID,0,VALID,23.6019,VALID,69,VALID,0,
2011-03-26, 01:23:04,VALID,998.5,VALID,0,VALID,91.1129,VALID,0,VALID,23.5823,VALID,69,VALID,0,
2011-03-26, 01:24:04,VALID,998.48,VALID,0,VALID,91.1206,VALID,0,VALID,23.6232,VALID,69,VALID,0,
2011-03-26, 01:25:04,VALID,998.454,VALID,0,VALID,91.1816,VALID,0,VALID,23.6036,VALID,112,VALID,0,
2011-03-26, 01:26:04,VALID,998.455,VALID,0,VALID,91.235,VALID,0,VALID,23.5841,VALID,113,VALID,0,
2011-03-26, 01:27:04,VALID,998.444,VALID,0,VALID,91.2655,VALID,0,VALID,23.6036,VALID,123,VALID,0,
2011-03-26, 01:28:04,VALID,998.434,VALID,0,VALID,91.2579,VALID,0,VALID,23.6036,VALID,123,VALID,0,
2011-03-26, 01:29:04,VALID,998.425,VALID,0,VALID,91.2579,VALID,0,VALID,23.6232,VALID,123,VALID,0,
2011-03-26, 01:30:04,VALID,998.399,VALID,0,VALID,91.2121,VALID,0,VALID,23.6232,VALID,123,VALID,0,
2011-03-26, 01:31:04,VALID,998.395,VALID,0,VALID,91.1434,VALID,0,VALID,23.6232,VALID,138,VALID,0,
2011-03-26, 01:32:04,VALID,998.415,VALID,0,VALID,91.1358,VALID,0,VALID,23.6622,VALID,170,VALID,0.873047,
2011-03-26, 01:33:04,VALID,998.354,VALID,0,VALID,91.1816,VALID,0,VALID,23.6409,VALID,172,VALID,0.873828,
2011-03-26, 01:34:04,VALID,998.345,VALID,0,VALID,91.2045,VALID,0,VALID,23.6622,VALID,143,VALID,0.942578,
2011-03-26, 01:35:04,VALID,998.361,VALID,0,VALID,91.174,VALID,0,VALID,23.6622,VALID,141,VALID,0.919141,
2011-03-26, 01:36:04,VALID,998.352,VALID,0,VALID,91.1587,VALID,0,VALID,23.6817,VALID,141,VALID,0.523828,
2011-03-26, 01:37:04,VALID,998.358,VALID,0,VALID,91.1434,VALID,0,VALID,23.6622,VALID,135,VALID,0.664844,
2011-03-26, 01:38:04,VALID,998.349,VALID,0,VALID,91.1358,VALID,0,VALID,23.6622,VALID,135,VALID,0.0121094,
2011-03-26, 01:39:04,VALID,998.374,VALID,0,VALID,91.1511,VALID,0,VALID,23.6622,VALID,135,VALID,0,
2011-03-26, 01:40:04,VALID,998.361,VALID,0,VALID,91.2121,VALID,0,VALID,23.6427,VALID,135,VALID,0,
2011-03-26, 01:41:04,VALID,998.357,VALID,0,VALID,91.3113,VALID,0,VALID,23.6427,VALID,135,VALID,0,
2011-03-26, 01:42:04,VALID,998.351,VALID,0,VALID,91.3952,VALID,0,VALID,23.6019,VALID,135,VALID,0,
2011-03-26, 01:43:04,VALID,998.354,VALID,0,VALID,91.4639,VALID,0,VALID,23.6427,VALID,135,VALID,0,
2011-03-26, 01:44:04,VALID,998.339,VALID,0,VALID,91.5249,VALID,0,VALID,23.6232,VALID,135,VALID,0,
2011-03-26, 01:45:04,VALID,998.333,VALID,0,VALID,91.5554,VALID,0,VALID,23.6427,VALID,135,VALID,0,
2011-03-26, 01:46:04,VALID,998.294,VALID,0,VALID,91.5783,VALID,0,VALID,23.6622,VALID,174,VALID,0,
2011-03-26, 01:47:04,VALID,998.327,VALID,0,VALID,91.6317,VALID,0,VALID,23.6622,VALID,173,VALID,0.735547,
2011-03-26, 01:48:04,VALID,998.274,VALID,0,VALID,91.647,VALID,0,VALID,23.6817,VALID,173,VALID,0.864453,
2011-03-26, 01:49:04,VALID,998.291,VALID,0,VALID,91.6317,VALID,0,VALID,23.6622,VALID,173,VALID,0.689062,
2011-03-26, 01:50:04,VALID,998.246,VALID,0,VALID,91.6012,VALID,0,VALID,23.6622,VALID,173,VALID,0.0605469,
2011-03-26, 01:51:04,VALID,998.234,VALID,0,VALID,91.5554,VALID,0,VALID,23.6622,VALID,173,VALID,0.00585938,
2011-03-26, 01:52:04,VALID,998.245,VALID,0,VALID,91.502,VALID,0,VALID,23.6817,VALID,298,VALID,0.123047,
2011-03-26, 01:53:04,VALID,998.249,VALID,0,VALID,91.3952,VALID,0,VALID,23.703,VALID,298,VALID,0.0292969,
2011-03-26, 01:54:04,VALID,998.229,VALID,0,VALID,91.3266,VALID,0,VALID,23.6817,VALID,298,VALID,0,
2011-03-26, 01:55:04,VALID,998.197,VALID,0,VALID,91.2884,VALID,0,VALID,23.7012,VALID,299,VALID,0.235156,
2011-03-26, 01:56:04,VALID,998.185,VALID,0,VALID,91.2121,VALID,0,VALID,23.7012,VALID,25,VALID,0,
2011-03-26, 01:57:04,VALID,998.158,VALID,0,VALID,91.1206,VALID,0,VALID,23.7012,VALID,25,VALID,0,
2011-03-26, 01:58:04,VALID,998.161,VALID,0,VALID,91.029,VALID,0,VALID,23.7207,VALID,25,VALID,0,
2011-03-26, 01:59:04,VALID,998.146,VALID,0,VALID,90.9222,VALID,0,VALID,23.7207,VALID,25,VALID,0,
2011-03-26, 02:00:04,VALID,998.127,VALID,0,VALID,90.8611,VALID,0,VALID,23.7207,VALID,227,VALID,0,
2011-03-26, 02:01:04,VALID,998.12,VALID,0,VALID,90.8001,VALID,0,VALID,23.7402,VALID,73,VALID,0,
2011-03-26, 02:02:04,VALID,998.116,VALID,0,VALID,90.7238,VALID,0,VALID,23.7793,VALID,221,VALID,0.454688,
2011-03-26, 02:03:04,VALID,998.099,VALID,0,VALID,90.5941,VALID,0,VALID,23.8183,VALID,256,VALID,0,
2011-03-26, 02:04:04,VALID,998.102,VALID,0,VALID,90.4415,VALID,0,VALID,23.8183,VALID,300,VALID,0,
2011-03-26, 02:05:04,VALID,998.082,VALID,0,VALID,90.3271,VALID,0,VALID,23.8378,VALID,357,VALID,0,
2011-03-26, 02:06:04,VALID,998.059,VALID,0,VALID,90.2813,VALID,0,VALID,23.8591,VALID,352,VALID,0,
2011-03-26, 02:07:04,VALID,998.075,VALID,0,VALID,90.2203,VALID,0,VALID,23.8573,VALID,13,VALID,0,
2011-03-26, 02:08:04,VALID,998.065,VALID,0,VALID,90.1058,VALID,0,VALID,23.8573,VALID,8,VALID,0,
2011-03-26, 02:09:04,VALID,998.021,VALID,0,VALID,89.9914,VALID,0,VALID,23.8768,VALID,28,VALID,0,
2011-03-26, 02:10:04,VALID,998.032,VALID,0,VALID,89.9074,VALID,0,VALID,23.8963,VALID,313,VALID,0.501953,
2011-03-26, 02:11:04,VALID,997.997,VALID,0,VALID,89.8693,VALID,0,VALID,23.9159,VALID,341,VALID,0.590234,
2011-03-26, 02:12:04,VALID,997.994,VALID,0,VALID,89.8235,VALID,0,VALID,23.9567,VALID,356,VALID,0.385156,
2011-03-26, 02:13:04,VALID,997.974,VALID,0,VALID,89.8006,VALID,0,VALID,23.9372,VALID,356,VALID,0.179688,
2011-03-26, 02:14:04,VALID,997.974,VALID,0,VALID,89.7625,VALID,0,VALID,23.914,VALID,356,VALID,0,
2011-03-26, 02:15:04,VALID,997.943,VALID,0,VALID,89.7701,VALID,0,VALID,23.914,VALID,124,VALID,0.383984,
2011-03-26, 02:16:04,VALID,997.971,VALID,0,VALID,89.7625,VALID,0,VALID,23.914,VALID,124,VALID,0,
2011-03-26, 02:17:04,VALID,997.947,VALID,0,VALID,89.7472,VALID,0,VALID,23.9336,VALID,275,VALID,0.107813,
2011-03-26, 02:18:04,VALID,997.971,VALID,0,VALID,89.7014,VALID,0,VALID,23.9531,VALID,252,VALID,1.38437,
2011-03-26, 02:19:04,VALID,997.981,VALID,0,VALID,89.4344,VALID,0,VALID,24.0116,VALID,244,VALID,1.41523,
2011-03-26, 02:20:04,VALID,997.988,VALID,0,VALID,89.0758,VALID,0.112286,VALID,24.0701,VALID,250,VALID,0.0289063,
2011-03-26, 02:21:04,VALID,997.991,VALID,0,VALID,88.8393,VALID,0.112286,VALID,24.0897,VALID,207,VALID,0.46875,
2011-03-26, 02:22:04,VALID,997.977,VALID,0,VALID,88.8011,VALID,0.112286,VALID,24.0897,VALID,207,VALID,0.152734,
2011-03-26, 02:23:04,VALID,997.99,VALID,0,VALID,88.8088,VALID,0,VALID,24.0897,VALID,214,VALID,0.885156,
2011-03-26, 02:24:04,VALID,997.981,VALID,0,VALID,88.6714,VALID,0,VALID,24.0897,VALID,234,VALID,0.980469,
2011-03-26, 02:25:04,VALID,997.982,VALID,0,VALID,88.4654,VALID,0,VALID,24.1092,VALID,234,VALID,0.851563,
2011-03-26, 02:26:04,VALID,998,VALID,0,VALID,88.2671,VALID,0,VALID,24.1677,VALID,248,VALID,0.855469,
2011-03-26, 02:27:04,VALID,997.958,VALID,0,VALID,88.0687,VALID,0.112286,VALID,24.1872,VALID,216,VALID,0.851563,
2011-03-26, 02:28:04,VALID,997.963,VALID,0,VALID,87.8398,VALID,0.112286,VALID,24.2067,VALID,231,VALID,0.620313,
2011-03-26, 02:29:04,VALID,998.016,VALID,0,VALID,87.7483,VALID,0,VALID,24.2281,VALID,229,VALID,0.324219,
2011-03-26, 02:30:04,VALID,998.011,VALID,0,VALID,87.7635,VALID,0,VALID,24.2086,VALID,229,VALID,0,
2011-03-26, 02:31:04,VALID,997.966,VALID,0,VALID,87.7025,VALID,0,VALID,24.1891,VALID,229,VALID,0,
2011-03-26, 02:32:04,VALID,997.949,VALID,0,VALID,87.6949,VALID,0,VALID,24.2086,VALID,228,VALID,0,
2011-03-26, 02:33:04,VALID,997.941,VALID,0,VALID,87.794,VALID,0,VALID,24.2104,VALID,188,VALID,0,
2011-03-26, 02:34:05,VALID,997.964,VALID,0,VALID,87.7483,VALID,0,VALID,24.1696,VALID,343,VALID,0.522266,
2011-03-26, 02:35:05,VALID,997.971,VALID,0,VALID,87.5041,VALID,0,VALID,24.1891,VALID,301,VALID,0,
2011-03-26, 02:36:05,VALID,997.935,VALID,0,VALID,87.4049,VALID,0,VALID,24.2086,VALID,295,VALID,0,
2011-03-26, 02:37:05,VALID,997.948,VALID,0,VALID,87.5041,VALID,0,VALID,24.1891,VALID,158,VALID,0,
2011-03-26, 02:38:05,VALID,997.936,VALID,0,VALID,87.4202,VALID,0,VALID,24.1677,VALID,284,VALID,0,
2011-03-26, 02:39:05,VALID,997.935,VALID,0,VALID,87.4507,VALID,0,VALID,24.1891,VALID,286,VALID,0,
2011-03-26, 02:40:05,VALID,997.924,VALID,0,VALID,87.2981,VALID,0,VALID,24.1696,VALID,221,VALID,0.0882813,
2011-03-26, 02:41:05,VALID,997.932,VALID,0,VALID,87.2676,VALID,0,VALID,24.1891,VALID,257,VALID,0,
2011-03-26, 02:42:05,VALID,997.923,VALID,0,VALID,87.2981,VALID,0,VALID,24.2086,VALID,257,VALID,0,
2011-03-26, 02:43:05,VALID,997.929,VALID,0,VALID,87.3134,VALID,0,VALID,24.1696,VALID,257,VALID,0,
2011-03-26, 02:44:05,VALID,997.903,VALID,0,VALID,87.3286,VALID,0,VALID,24.1696,VALID,262,VALID,0,
2011-03-26, 02:45:05,VALID,997.883,VALID,0,VALID,87.3744,VALID,0,VALID,24.1714,VALID,19,VALID,0,
2011-03-26, 02:46:05,VALID,997.925,VALID,0,VALID,87.4507,VALID,0,VALID,24.15,VALID,19,VALID,0,
2011-03-26, 02:47:05,VALID,997.873,VALID,0,VALID,87.5346,VALID,0,VALID,24.111,VALID,15,VALID,0,
2011-03-26, 02:48:05,VALID,997.856,VALID,0,VALID,87.5041,VALID,0,VALID,24.111,VALID,14,VALID,0,
2011-03-26, 02:49:05,VALID,997.893,VALID,0,VALID,87.5194,VALID,0,VALID,24.111,VALID,14,VALID,0,
2011-03-26, 02:50:05,VALID,997.865,VALID,0,VALID,87.1913,VALID,0,VALID,24.111,VALID,329,VALID,0,
2011-03-26, 02:51:05,VALID,997.885,VALID,0,VALID,86.7793,VALID,0,VALID,24.2086,VALID,253,VALID,0,
2011-03-26, 02:52:05,VALID,997.845,VALID,0,VALID,86.436,VALID,0,VALID,24.2476,VALID,267,VALID,0,
2011-03-26, 02:53:05,VALID,997.865,VALID,0,VALID,86.4665,VALID,0,VALID,24.2476,VALID,267,VALID,0,
2011-03-26, 02:54:05,VALID,997.863,VALID,0,VALID,86.6343,VALID,0,VALID,24.2281,VALID,267,VALID,0,
2011-03-26, 02:55:05,VALID,997.857,VALID,0,VALID,86.8861,VALID,0,VALID,24.1891,VALID,211,VALID,0,
2011-03-26, 02:56:05,VALID,997.867,VALID,0,VALID,86.7183,VALID,0,VALID,24.1696,VALID,86,VALID,0,
2011-03-26, 02:57:05,VALID,997.846,VALID,0,VALID,86.4894,VALID,0,VALID,24.1909,VALID,86,VALID,0,
2011-03-26, 02:58:05,VALID,997.872,VALID,0,VALID,86.3215,VALID,0,VALID,24.1891,VALID,86,VALID,0,
2011-03-26, 02:59:05,VALID,997.868,VALID,0,VALID,86.2834,VALID,0,VALID,24.2086,VALID,86,VALID,0,
2011-03-26, 03:00:05,VALID,997.835,VALID,0,VALID,86.291,VALID,0,VALID,24.2086,VALID,86,VALID,0,
2011-03-26, 03:01:05,VALID,997.801,VALID,0,VALID,86.3292,VALID,0,VALID,24.1891,VALID,86,VALID,0,
2011-03-26, 03:02:05,VALID,997.78,VALID,0,VALID,86.2605,VALID,0,VALID,24.2086,VALID,86,VALID,0,
2011-03-26, 03:03:05,VALID,997.762,VALID,0,VALID,86.1842,VALID,0,VALID,24.2086,VALID,86,VALID,0,
2011-03-26, 03:04:05,VALID,997.774,VALID,0,VALID,85.9553,VALID,0,VALID,24.2476,VALID,86,VALID,0,
2011-03-26, 03:05:05,VALID,997.751,VALID,0,VALID,85.9934,VALID,0,VALID,24.2671,VALID,86,VALID,0,
2011-03-26, 03:06:05,VALID,997.751,VALID,0,VALID,86.1384,VALID,0,VALID,24.2476,VALID,86,VALID,0,
2011-03-26, 03:07:05,VALID,997.734,VALID,0,VALID,86.4512,VALID,0,VALID,24.2281,VALID,90,VALID,0,
2011-03-26, 03:08:05,VALID,997.726,VALID,0,VALID,86.5046,VALID,0,VALID,24.1891,VALID,91,VALID,0,
2011-03-26, 03:09:05,VALID,997.703,VALID,0,VALID,86.6572,VALID,0,VALID,24.1696,VALID,91,VALID,0,
2011-03-26, 03:10:05,VALID,997.677,VALID,0,VALID,86.7183,VALID,0,VALID,24.15,VALID,91,VALID,0,
2011-03-26, 03:11:05,VALID,997.692,VALID,0,VALID,86.5351,VALID,0,VALID,24.1696,VALID,91,VALID,0,
2011-03-26, 03:12:05,VALID,997.659,VALID,0,VALID,86.5733,VALID,0,VALID,24.1891,VALID,91,VALID,0,
2011-03-26, 03:13:05,VALID,997.626,VALID,0,VALID,86.9472,VALID,0,VALID,24.1696,VALID,104,VALID,0,
2011-03-26, 03:14:05,VALID,997.647,VALID,0,VALID,87.2981,VALID,0,VALID,24.1287,VALID,122,VALID,0,
2011-03-26, 03:15:05,VALID,997.592,VALID,0,VALID,87.7559,VALID,0,VALID,24.0915,VALID,126,VALID,0,
2011-03-26, 03:16:05,VALID,997.596,VALID,0,VALID,88.2137,VALID,0,VALID,24.0134,VALID,160,VALID,1.07813,
2011-03-26, 03:17:05,VALID,997.568,VALID,0,VALID,88.4578,VALID,0,VALID,23.9549,VALID,127,VALID,1.25937,
2011-03-26, 03:18:05,VALID,997.579,VALID,0,VALID,88.5723,VALID,0,VALID,23.9354,VALID,134,VALID,0.903125,
2011-03-26, 03:19:05,VALID,997.566,VALID,0,VALID,88.5494,VALID,0,VALID,23.9159,VALID,133,VALID,0.444922,
2011-03-26, 03:20:05,VALID,997.544,VALID,0,VALID,88.5417,VALID,0,VALID,23.8963,VALID,147,VALID,0.151562,
2011-03-26, 03:21:05,VALID,997.555,VALID,0,VALID,88.5951,VALID,0,VALID,23.8768,VALID,141,VALID,0.786719,
2011-03-26, 03:22:05,VALID,997.564,VALID,0,VALID,88.4883,VALID,0,VALID,23.8768,VALID,120,VALID,1.05391,
2011-03-26, 03:23:05,VALID,997.574,VALID,0,VALID,88.1908,VALID,0,VALID,23.8963,VALID,121,VALID,0,
2011-03-26, 03:24:05,VALID,997.594,VALID,0,VALID,87.8932,VALID,0,VALID,23.9354,VALID,117,VALID,0.000390625,
2011-03-26, 03:25:05,VALID,997.604,VALID,0,VALID,87.8093,VALID,0,VALID,23.9744,VALID,115,VALID,0.748828,
2011-03-26, 03:26:05,VALID,997.605,VALID,0,VALID,87.8017,VALID,0,VALID,23.9744,VALID,163,VALID,0.476563,
2011-03-26, 03:27:05,VALID,997.614,VALID,0,VALID,87.8246,VALID,0,VALID,23.9744,VALID,163,VALID,0,
2011-03-26, 03:28:05,VALID,997.617,VALID,0,VALID,87.5575,VALID,0,VALID,23.9549,VALID,163,VALID,0.0863281,
2011-03-26, 03:29:05,VALID,997.641,VALID,0,VALID,87.4049,VALID,0,VALID,23.9744,VALID,106,VALID,0.362109,
2011-03-26, 03:30:05,VALID,997.637,VALID,0,VALID,87.5728,VALID,0,VALID,23.9939,VALID,106,VALID,0,
2011-03-26, 03:31:05,VALID,997.591,VALID,0,VALID,87.5804,VALID,0,VALID,23.9744,VALID,106,VALID,0,
2011-03-26, 03:32:05,VALID,997.58,VALID,0,VALID,87.8093,VALID,0,VALID,23.9549,VALID,106,VALID,0,
2011-03-26, 03:33:05,VALID,997.615,VALID,0,VALID,88.0534,VALID,0,VALID,23.8963,VALID,106,VALID,0,
2011-03-26, 03:34:05,VALID,997.597,VALID,0,VALID,88.2289,VALID,0,VALID,23.8573,VALID,106,VALID,0,
2011-03-26, 03:35:05,VALID,997.632,VALID,0,VALID,88.1068,VALID,0,VALID,23.8378,VALID,106,VALID,0,
2011-03-26, 03:36:05,VALID,997.645,VALID,0,VALID,88.1755,VALID,0,VALID,23.8573,VALID,106,VALID,0,
2011-03-26, 03:37:05,VALID,997.67,VALID,0,VALID,88.3052,VALID,0,VALID,23.8573,VALID,97,VALID,0,
2011-03-26, 03:38:05,VALID,997.695,VALID,0,VALID,88.3586,VALID,0,VALID,23.8378,VALID,96,VALID,0,
2011-03-26, 03:39:05,VALID,997.671,VALID,0,VALID,87.8932,VALID,0,VALID,23.8183,VALID,57,VALID,0.853906,
2011-03-26, 03:40:05,VALID,997.73,VALID,0,VALID,87.7559,VALID,0,VALID,23.8768,VALID,51,VALID,0.10625,
2011-03-26, 03:41:05,VALID,997.769,VALID,0,VALID,87.8322,VALID,0,VALID,23.8963,VALID,51,VALID,0,
2011-03-26, 03:42:05,VALID,997.75,VALID,0,VALID,88,VALID,0,VALID,23.8768,VALID,51,VALID,0,
2011-03-26, 03:43:05,VALID,997.724,VALID,0,VALID,87.9314,VALID,0,VALID,23.836,VALID,49,VALID,0,
2011-03-26, 03:44:05,VALID,997.757,VALID,0,VALID,87.6872,VALID,0,VALID,23.8768,VALID,48,VALID,0,
2011-03-26, 03:45:05,VALID,997.787,VALID,0,VALID,87.6567,VALID,0,VALID,23.8555,VALID,48,VALID,0,
2011-03-26, 03:46:05,VALID,997.775,VALID,0,VALID,87.8246,VALID,0,VALID,23.8573,VALID,48,VALID,0,
2011-03-26, 03:47:05,VALID,997.774,VALID,0,VALID,87.9619,VALID,0,VALID,23.8378,VALID,48,VALID,0,
2011-03-26, 03:48:05,VALID,997.762,VALID,0,VALID,87.733,VALID,0,VALID,23.8378,VALID,52,VALID,0,
2011-03-26, 03:49:05,VALID,997.775,VALID,0,VALID,87.3973,VALID,0,VALID,23.8963,VALID,56,VALID,0,
2011-03-26, 03:50:05,VALID,997.733,VALID,0,VALID,86.9853,VALID,0,VALID,23.9354,VALID,85,VALID,0.954687,
2011-03-26, 03:51:05,VALID,997.721,VALID,0,VALID,86.4436,VALID,0,VALID,24.0134,VALID,85,VALID,0.93125,
2011-03-26, 03:52:05,VALID,997.72,VALID,0,VALID,86.3139,VALID,0,VALID,24.072,VALID,85,VALID,0.512891,
2011-03-26, 03:53:05,VALID,997.702,VALID,0,VALID,86.3673,VALID,0,VALID,24.0506,VALID,85,VALID,0.0375,